Погода Шауляй

Поиск расширенной информации на нашем сайте:

Полезная информация:

Новости сайта



02.01.2020
Опубликован Долгосрочный прогноз погоды по городам России и ближнего зарубежья на январь 2020 года.
Карты: Прогноз на январь и февраль 2020 года, Сравнение прогнозируемой аномалии приземной температуры воздуха на январь 2020 года по разным моделям.




Погода Шауляй - сегодня

Время (UTC), дата Ветер
(°,м/с) 
Видим.   Явления Облачность Т
(°С)
Тd
(°С)
f(%) Тe
(°С)
Pmin
(гПа)
dP
(гПа)
Po
(мм)
O2
(г/м3)
Тmin Tmax R s Состояние
почвы
03 04.08.20 090 (В) 3-5{06}  16000 м  слаб. дождь  10/10 1500 м 
[Ns]
+15.3 +14.2 93 +23  1008.8  -1.4  747  282           
06 04.08.20 тихо () -2{05}  18000 м  в посл. час дождь  10/0 средняя 
[Ac As]
+16 +14.7 92 +24  1008.5  -0.2  747  281  +15.2      мокрая 
09 04.08.20 290 (З) 1-3{04}  20000 м    10/0 средняя 
[Ac As]
+19.5 +14.9 75 +30  1008.3  -0.1  747  278           
12 04.08.20 310 (СЗ) 1-3{05}  20000 м    10/6 480 м средняя 
[Sc|Ac As]
+19.5 +15.9 80 +31  1009.1  0.8  747  278           
15 04.08.20 310 (СЗ) 1-3{04}  6000 м  слаб. дождь  10/0 средняя 
[As op]
+18 +16.3 90 +30  1009.8  0.6  748  279           
18 04.08.20 тихо () -2{03}  6000 м  слаб. дождь  10/10 120 м 
[Frnb|Ns]
+17 +15.6 91 +27  1010.9  1.2  749  281    +20.1     
21 04.08.20 320 (СЗ) 3-5{05}  17000 м  {дождь}  10/10 120 м 
[St]
+16.3 +15.2 93 +26  1011.7  0.7  749  282           
00 05.08.20 310 (СЗ) 2-5{05}  12000 м  {дождь}  10/10 150 м 
[St]
+16.1 +15 93 +26  1013.6  1.9  751  282      0.4     
03 05.08.20 280 (З) 1-4{07}  20000 м    10/10 180 м 
[St]
+14.5 +13.5 94 +22  1015.3  1.6  752  285           
06 05.08.20 310 (СЗ) 4-6{06}  20000 м    10/10 240 м 
[St]
+15.9 +14.3 90 +23  1017  1.8  753  284  +14.5    0.4    влажная 
09 05.08.20 290 (З) 2-5{06}  19000 м    4/3 600 м верхняя 
[Cu med, cong|Ci sp]
+20 +13.4 66 +26  1018.3  1.4  754  281           
12 05.08.20 280 (З) 2-5{07}  20000 м    5/4 1350 м верхняя 
[Cu med, cong|Ci fib]
+21.3 +11 52 +24  1019  0.8  755  280           
15 05.08.20 280 (З) 2-7{08}  20000 м    8/0 верхняя 
[Cs]
+20.9 +9.5 48 +21  1020.2  1.1  756  281           
18 05.08.20 300 (СЗ) 2-4{08}  20000 м    3/0 средняя, верхняя 
[Ac trans|Ci sp]
+17.7 +9.6 59 +19  1021.6  1.3  757  285    +23.3       
21 05.08.20 тихо () -2{04}  20000 м    3/0 верхняя 
[Ci fib]
+12.3 +9.4 82 +13  1023  1.1  758  290           
00 06.08.20 тихо () -2{03}  20000 м    ясно 
+12 +10.1 88 +13  1023.8  0.8  758  291           
03 06.08.20 тихо () -0{02}  19000 м    3/0 средняя, верхняя 
[Ac lent|Ci fib]
+10.7 +9.3 91 +11  1025  1.1  759  293           
06 06.08.20 240 (ЮЗ) 2-4{04}  20000 м    8/0 средняя, верхняя 
[Ac und|Ci sp]
+18.4 +10.1 58 +20  1025.7  1.1  760  285  +10.7        влажная 
09 06.08.20 210 (ЮЗ) 1-4{05}  20000 м    3/0 средняя, верхняя 
[Ac trans|Ci fib]
+23 +11.6 49 +26  1026.4  0.7  760  280           
12 06.08.20 220 (ЮЗ) 2-5{06}  19000 м    1/0 верхняя 
[Ci fib]
+25.4 +11.1 41 +28  1026.1  -0.2  760  278           
15 06.08.20 340 (С) 1-3{05}  20000 м    1/0 верхняя 
[Ci fib]
+26.3 +12.3 42 +30  1025.6  -0.4  760  277           
18 06.08.20 320 (СЗ) 1-3{04}  20000 м    1/0 верхняя 
[Ci sp]
+22.4 +14.2 60 +29  1026.2  0.4  760  280    +26.7       
21 06.08.20 тихо () -0{03}  19000 м    ясно 
+16.9 +14.2 84 +24  1027.5  1.1  761  286           
00 07.08.20 тихо () -0{00}  15000 м    ясно 
+14.8 +12.7 87 +19  1028.2  0.6  761  289           
03 07.08.20 тихо () -0{00}  4200 м  местами туман поземный  ясно 
+13.8 +12.5 92 +18  1028.7  0.4  762  290           
Время (UTC), дата Ветер
(°,м/с) 
Видим.   Явления Облачность Т
(°С)
Тd
(°С)
f(%) Тe
(°С)
Pmin
(гПа)
dP
(гПа)
Po
(мм)
O2
(г/м3)
Тmin Tmax R s Состояние
почвы

Для получения пояснительной информации подведите курсор к названию столбца.

ПОГОДА Шауляй - архив

Всё, что Вы хотите узнать о погоде Шауляй - удобно и подробно!

Выберите нужную дату (начиная с 1 января 2019* года) и нажмите кнопку "Найти".
Будут отображены архивные сводки погоды по пункту Шауляй, начиная с указанной даты.


Отображать данные в формате CSV (для использования в таблицах Excel)


Внимание! Наш архив погоды предназначен исключительно для личного некоммерческого использования в познавательных целях. Если Вам необходимы официальные справки о состоянии погоды (для производственных, юридических, коммерческих и т.п. целей), обращайтесь в органы Росгидромета.

*Примечание: данная дата относится к архиву по метеостанциям СССР (Россия, СНГ, Балтия).
Архив по метеостанциям Зарубежной Европы и Азии (кроме Китая) хранится 10 дней, по другим регионам земного шара (Китай, Африка, Америка, Австралия, Океания) - 1 день.

Шауляй - район местоположения метеостанции


Название, широта, долгота, высота метеостанции:
Шауляй 55.9°ш. 23.3°д. 107 м над ур. моря [Литва]

Дополнительная информация

В oтличие oт бoльшинства пoгoдных сайтoв мы публикуем пoдрoбную метеoинфoрмацию в детальнoм прoфессиoнальнoм фoрмате.

Характеристики температуры и влажнoсти вoздуха измеряются на высoте 2 м в тени вдали oт зданий и деревьев.
Скoрoсть ветра измеряется на высoте 10 м (на урoвне рoста челoвека скoрoсть ветра ниже в 1.5-2 раза). Если метеoстанция нахoдится в гoрoде или в лесу, тo скoрoсть ветра занижена на 2-4 м/с пo сравнению с oткрытым местoм. Скoрoсть ветра над акватoриями крупных рек и oзёр, а также на вершинах хoлмoв на 2-5 м/с выше, чем в oбычных услoвиях.
Атмoсфернoе давление в разных тoчках местнoсти мoжет значительнo oтличаться oт давления на метеoстанции, в зависимoсти oт услoвий рельефа (при пoдъёме на 10 м давление пoнижается примернo на 1 мм рт.ст.).